• In Hungary
  • List of Countries
  • For 7 days
  • Water Temperature
  • Satellite Maps
  • Weather Map
  • News
  • Weather Widgets
  • user-avatar
    Login

    Hourly Weather Staunton

    Today, 20 October, Saturday

    Time Temperature Precipitation Wind Pressure Humidity
    00:00 +11°C° 0.1 mm 3 mps 719 mmHg 89%
    01:00 +11°C° 0 mm 3 mps 719 mmHg 89%
    02:00 +11°C° 0.2 mm 3 mps 718 mmHg 90%
    03:00 +12°C° 0.2 mm 3 mps 718 mmHg 91%
    04:00 +12°C° 0.2 mm 3 mps 718 mmHg 92%
    05:00 +12°C° 0 mm 3 mps 718 mmHg 93%
    06:00 +12°C° 0 mm 3 mps 717 mmHg 93%
    07:00 +11°C° 0 mm 3 mps 717 mmHg 93%
    08:00 +12°C° 0 mm 3 mps 718 mmHg 87%
    09:00 +13°C° 0 mm 4 mps 718 mmHg 80%
    10:00 +14°C° 0 mm 4 mps 718 mmHg 74%
    11:00 +15°C° 0 mm 5 mps 718 mmHg 68%
    12:00 +15°C° 0 mm 5 mps 717 mmHg 62%
    13:00 +16°C° 0 mm 6 mps 717 mmHg 57%
    14:00 +15°C° 0 mm 6 mps 717 mmHg 58%
    15:00 +14°C° 0 mm 5 mps 716 mmHg 60%
    16:00 +13°C° 0 mm 5 mps 715 mmHg 61%
    17:00 +12°C° 0 mm 5 mps 716 mmHg 65%
    18:00 +11°C° 0 mm 4 mps 716 mmHg 69%
    19:00 +10°C° 0 mm 3 mps 716 mmHg 73%
    20:00 +8°C° 0.1 mm 4 mps 716 mmHg 75%
    21:00 +7°C° 0.1 mm 4 mps 717 mmHg 77%
    22:00 +6°C° 0.1 mm 4 mps 717 mmHg 79%
    23:00 +5°C° 0 mm 5 mps 717 mmHg 76%

    Tomorrow, 21 October, Sunday

    Time Temperature Precipitation Wind Pressure Humidity
    00:00 +3°C° 0 mm 5 mps 718 mmHg 73%
    01:00 +2°C° 0 mm 6 mps 718 mmHg 69%
    02:00 +1°C° 0 mm 6 mps 719 mmHg 67%
    03:00 0°C° 0 mm 7 mps 720 mmHg 65%
    04:00 0°C° 0 mm 8 mps 721 mmHg 64%
    05:00 -1°C° 0 mm 7 mps 721 mmHg 64%
    06:00 -1°C° 0 mm 6 mps 722 mmHg 64%
    07:00 -1°C° 0 mm 5 mps 723 mmHg 65%
    08:00 +1°C° 0 mm 6 mps 724 mmHg 60%
    09:00 +2°C° 0 mm 6 mps 725 mmHg 55%
    10:00 +4°C° 0 mm 6 mps 726 mmHg 51%
    11:00 +5°C° 0 mm 6 mps 726 mmHg 49%
    12:00 +5°C° 0 mm 6 mps 726 mmHg 47%
    13:00 +7°C° 0 mm 5 mps 726 mmHg 46%
    14:00 +7°C° 0 mm 5 mps 726 mmHg 47%
    15:00 +7°C° 0 mm 4 mps 726 mmHg 48%
    16:00 +7°C° 0 mm 4 mps 726 mmHg 50%
    17:00 +5°C° 0 mm 3 mps 726 mmHg 57%
    18:00 +4°C° 0 mm 2 mps 726 mmHg 65%
    19:00 +3°C° 0 mm 1 mps 727 mmHg 73%
    20:00 +3°C° 0 mm 1 mps 727 mmHg 75%
    21:00 +2°C° 0 mm 1 mps 727 mmHg 78%
    22:00 +2°C° 0 mm 1 mps 728 mmHg 80%
    23:00 +1°C° 0 mm 1 mps 728 mmHg 82%

    Day after tomorrow, 22 October, Monday

    Time Temperature Precipitation Wind Pressure Humidity
    00:00 +1°C° 0 mm 1 mps 728 mmHg 83%
    01:00 +1°C° 0 mm 1 mps 728 mmHg 85%
    02:00 0°C° 0 mm 1 mps 728 mmHg 85%
    03:00 0°C° 0 mm 1 mps 728 mmHg 85%
    04:00 0°C° 0 mm 1 mps 728 mmHg 84%
    05:00 0°C° 0 mm 1 mps 728 mmHg 82%
    06:00 0°C° 0 mm 1 mps 728 mmHg 80%
    07:00 +1°C° 0 mm 1 mps 728 mmHg 78%
    08:00 +4°C° 0 mm 1 mps 728 mmHg 68%
    09:00 +5°C° 0 mm 2 mps 728 mmHg 57%
    10:00 +8°C° 0 mm 3 mps 728 mmHg 46%
    11:00 +10°C° 0 mm 3 mps 728 mmHg 43%
    12:00 +12°C° 0 mm 3 mps 727 mmHg 41%
    13:00 +13°C° 0 mm 4 mps 726 mmHg 38%
    14:00 +13°C° 0 mm 4 mps 726 mmHg 41%
    15:00 +13°C° 0 mm 3 mps 725 mmHg 44%
    16:00 +13°C° 0 mm 3 mps 725 mmHg 46%
    17:00 +11°C° 0 mm 3 mps 725 mmHg 56%
    18:00 +9°C° 0 mm 2 mps 725 mmHg 65%
    19:00 +6°C° 0 mm 2 mps 725 mmHg 75%
    20:00 +6°C° 0 mm 2 mps 725 mmHg 76%
    21:00 +6°C° 0 mm 2 mps 725 mmHg 78%
    22:00 +5°C° 0 mm 2 mps 725 mmHg 79%
    23:00 +5°C° 0 mm 2 mps 725 mmHg 78%

    23 October, Tuesday

    Time Temperature Precipitation Wind Pressure Humidity
    00:00 +5°C° 0 mm 2 mps 725 mmHg 78%
    01:00 +5°C° 0 mm 2 mps 725 mmHg 77%
    02:00 +4°C° 0 mm 2 mps 725 mmHg 78%
    03:00 +4°C° 0 mm 2 mps 724 mmHg 79%
    04:00 +4°C° 0 mm 1 mps 724 mmHg 80%
    05:00 +4°C° 0 mm 1 mps 724 mmHg 81%
    06:00 +4°C° 0 mm 1 mps 725 mmHg 82%
    07:00 +4°C° 0 mm 1 mps 725 mmHg 82%
    08:00 +7°C° 0 mm 1 mps 725 mmHg 73%
    09:00 +9°C° 0 mm 2 mps 726 mmHg 64%
    10:00 +13°C° 0 mm 2 mps 726 mmHg 55%
    11:00 +15°C° 0 mm 2 mps 726 mmHg 52%
    12:00 +16°C° 0 mm 2 mps 725 mmHg 50%
    13:00 +17°C° 0 mm 3 mps 725 mmHg 47%
    14:00 +17°C° 0 mm 3 mps 725 mmHg 49%
    15:00 +17°C° 0 mm 2 mps 724 mmHg 52%
    16:00 +16°C° 0 mm 2 mps 724 mmHg 54%
    17:00 +14°C° 0 mm 2 mps 724 mmHg 63%
    18:00 +10°C° 0 mm 2 mps 724 mmHg 72%
    19:00 +7°C° 0 mm 2 mps 724 mmHg 81%
    20:00 +8°C° 0 mm 1 mps 725 mmHg 84%
    21:00 +7°C° 0 mm 1 mps 725 mmHg 87%
    22:00 +6°C° 0 mm 1 mps 725 mmHg 89%
    23:00 +6°C° 0 mm 1 mps 725 mmHg 90%

    24 October, Wednesday

    Time Temperature Precipitation Wind Pressure Humidity
    00:00 +5°C° 0 mm 1 mps 725 mmHg 91%
    01:00 +5°C° 0 mm 1 mps 725 mmHg 93%
    02:00 +4°C° 0 mm 1 mps 725 mmHg 93%
    03:00 +4°C° 0 mm 1 mps 725 mmHg 93%
    04:00 +4°C° 0 mm 1 mps 725 mmHg 93%
    05:00 +4°C° 0 mm 1 mps 726 mmHg 92%
    06:00 +4°C° 0 mm 1 mps 726 mmHg 92%
    07:00 +3°C° 0 mm 1 mps 726 mmHg 91%
    08:00 +4°C° 0 mm 2 mps 727 mmHg 79%
    09:00 +6°C° 0 mm 2 mps 727 mmHg 68%
    10:00 +8°C° 0 mm 3 mps 727 mmHg 56%
    11:00 +9°C° 0 mm 3 mps 727 mmHg 51%
    12:00 +11°C° 0 mm 3 mps 727 mmHg 46%
    13:00 +13°C° 0 mm 2 mps 726 mmHg 41%
    14:00 +11°C° 0 mm 3 mps 726 mmHg 43%
    15:00 +11°C° 0 mm 3 mps 726 mmHg 45%
    16:00 +11°C° 0 mm 3 mps 726 mmHg 46%
    17:00 +8°C° 0 mm 2 mps 726 mmHg 55%
    18:00 +6°C° 0 mm 2 mps 726 mmHg 64%
    19:00 +4°C° 0 mm 2 mps 726 mmHg 73%
    20:00 +3°C° 0 mm 2 mps 727 mmHg 76%
    21:00 +3°C° 0 mm 1 mps 727 mmHg 80%
    22:00 +2°C° 0 mm 1 mps 727 mmHg 84%
    23:00 +2°C° 0 mm 1 mps 727 mmHg 85%

    25 October, Thursday

    Time Temperature Precipitation Wind Pressure Humidity
    00:00 +1°C° 0 mm 1 mps 727 mmHg 87%
    01:00 +1°C° 0 mm 1 mps 727 mmHg 89%
    02:00 +1°C° 0 mm 1 mps 727 mmHg 89%
    03:00 0°C° 0 mm 1 mps 727 mmHg 89%
    04:00 0°C° 0 mm 1 mps 727 mmHg 89%
    05:00 0°C° 0 mm 1 mps 727 mmHg 88%
    06:00 0°C° 0 mm 1 mps 727 mmHg 87%
    07:00 0°C° 0 mm 1 mps 727 mmHg 86%
    08:00 +3°C° 0 mm 1 mps 728 mmHg 74%
    09:00 +5°C° 0 mm 2 mps 728 mmHg 62%
    10:00 +7°C° 0 mm 2 mps 728 mmHg 50%
    11:00 +9°C° 0 mm 2 mps 728 mmHg 46%
    12:00 +10°C° 0 mm 2 mps 727 mmHg 42%
    13:00 +13°C° 0 mm 2 mps 727 mmHg 38%
    14:00 +12°C° 0 mm 2 mps 726 mmHg 40%
    15:00 +12°C° 0 mm 2 mps 726 mmHg 42%
    16:00 +12°C° 0 mm 2 mps 726 mmHg 44%
    17:00 +9°C° 0 mm 1 mps 726 mmHg 52%
    18:00 +7°C° 0 mm 1 mps 726 mmHg 60%
    19:00 +5°C° 0 mm 1 mps 726 mmHg 68%
    20:00 +4°C° 0 mm 1 mps 726 mmHg 70%
    21:00 +4°C° 0 mm 1 mps 726 mmHg 72%
    22:00 +3°C° 0 mm 1 mps 726 mmHg 74%
    23:00 +3°C° 0 mm 1 mps 726 mmHg 75%
    Show more